User: anonymous   Login
Location: Newark
(56.0692°N, 115.8617°E)
Time: 09:34:07
(UTC+00:00)
Language:

UWE-3 - Orbit

View from above orbital plane
View from above orbital plane
View from above satellite
View from above satellite

Ground track
Ground track

The orbit data is extracted from the following two-line orbital elements,

1 39446U 13066AG  21300.16302963  .00000572  00000-0  81229-4 0  9998
2 39446  97.6540 269.9138 0070627 129.0641 231.6884 14.78900106425977
Epoch (UTC): 27 October 2021 03:54:45
Eccentricity: 0.0070627
inclination: 97.6540°
perigee height: 583 km
apogee height: 682 km
right ascension of ascending node: 269.9138°
argument of perigee: 129.0641°
revolutions per day: 14.78900106
mean anomaly at epoch: 231.6884°
orbit number at epoch: 42597

The dashed part of the orbit path shows where the satellite is in the earth's shadow,  

DLR